Rhodes, Greece

2:57 PM EEST on July 23, 2018 (GMT +0300)
Diagoras

Weather History for LGRP - January, 2018

Change the Weather History Date:

Sunday, January 14, 2018

  Actual Average Record
Temperature  
Mean Temperature 55 °F -  
Max Temperature 60 °F 59 °F 64 °F (2011)
Min Temperature 50 °F 47 °F 44 °F (2013)
Degree Days  
Heating Degree Days 10    
Growing Degree Days 5 (Base 50)    
Moisture  
Dew Point 48 °F    
Average Humidity 78    
Maximum Humidity 100    
Minimum Humidity 50    
Precipitation  
Precipitation 0.00 in 0.18 in - ()
Sea Level Pressure  
Sea Level Pressure 29.95 in    
Wind  
Wind Speed 6 mph ()    
Max Wind Speed 16 mph    
Max Gust Speed -    
Visibility 6.1 miles    
Events Rain    
Averages and records for this station are not official NWS values.
T = Trace of Precipitation, MM = Missing Value Source: Averaged Metar Reports

Daily Weather History Graph

Daily Weather History Graph

Search for Another Location

Airport or City:

Astronomy

Jan. 14, 2018 Rise Set
Actual Time 7:18 AM EET 5:14 PM EET
Civil Twilight 6:50 AM EET 5:42 PM EET
Nautical Twilight 6:18 AM EET 6:14 PM EET
Astronomical Twilight 5:48 AM EET 6:45 PM EET
Moon 4:57 AM EET (1/14) 3:17 PM EET (1/14)
Length of Visible Light 10h 52m
Length of Day
9h 55m
Waning Crescent, 6% of the Moon is Illuminated
Jan 14
Waning Crescent
Jan 17
New
Jan 25
First Quarter
Jan 31
Full
Feb 7
Last Quarter

Hourly Weather History & Observations

Time (EET) Temp. Dew Point Humidity Pressure Visibility Wind Dir Wind Speed Gust Speed Precip Events Conditions
12:20 AM 53.6 °F 51.8 °F 94% 29.86 in 5.0 mi WSW 5.8 mph - N/A Rain Light Rain
12:50 AM 53.6 °F 51.8 °F 94% 29.86 in 6.2 mi SW 3.5 mph - N/A   Mostly Cloudy
1:20 AM 53.6 °F 51.8 °F 94% 29.83 in 6.2 mi Variable 2.3 mph - N/A   Scattered Clouds
1:50 AM 51.8 °F 50.0 °F 94% 29.83 in 6.2 mi ESE 5.8 mph - N/A   Scattered Clouds
2:00 AM 51 °F 49 °F 92% 29.86 in 6 mi ESE 5.8 mph - -   Partly Cloudy
2:20 AM 51.8 °F 50.0 °F 94% 29.83 in 6.2 mi ESE 5.8 mph - N/A   Scattered Clouds
2:50 AM 50.0 °F 50.0 °F 100% 29.83 in 6.2 mi ESE 4.6 mph - N/A   Scattered Clouds
3:20 AM 50.0 °F 50.0 °F 100% 29.83 in 6.2 mi ESE 4.6 mph - N/A   Scattered Clouds
3:50 AM 50.0 °F 48.2 °F 94% 29.83 in 6.2 mi ESE 3.5 mph - N/A   Scattered Clouds
4:20 AM 50.0 °F 48.2 °F 94% 29.83 in 6.2 mi SE 3.5 mph - N/A   Scattered Clouds
4:50 AM 50.0 °F 48.2 °F 94% 29.83 in 6.2 mi Variable 1.2 mph - N/A   Scattered Clouds
5:00 AM 50 °F 49 °F 93% 29.85 in 6 mi 1.2 mph - -   Partly Cloudy
5:20 AM 50.0 °F 48.2 °F 94% 29.83 in 6.2 mi Variable 2.3 mph - N/A   Scattered Clouds
5:50 AM 50.0 °F 48.2 °F 94% 29.83 in 6.2 mi ESE 3.5 mph - N/A   Scattered Clouds
6:20 AM 50.0 °F 48.2 °F 94% 29.86 in 6.2 mi Calm Calm - N/A   Scattered Clouds
6:50 AM 50.0 °F 50.0 °F 100% 29.86 in 6.2 mi Calm Calm - N/A   Scattered Clouds
7:20 AM 50.0 °F 50.0 °F 100% 29.86 in 6.2 mi Calm Calm - N/A   Scattered Clouds
7:50 AM 51.8 °F 51.8 °F 100% 29.89 in 6.2 mi Calm Calm - N/A   Scattered Clouds
8:00 AM 51 °F 51 °F 100% 29.89 in 6 mi Calm Calm - -   Partly Cloudy
8:20 AM 51.8 °F 51.8 °F 100% 29.89 in 6.2 mi Calm Calm - N/A   Partly Cloudy
8:50 AM 51.8 °F 51.8 °F 100% 29.89 in 6.2 mi SW 4.6 mph - N/A   Partly Cloudy
9:20 AM 55.4 °F 51.8 °F 88% 29.92 in 6.2 mi WNW 5.8 mph - N/A   Partly Cloudy
9:50 AM 57.2 °F 50.0 °F 77% 29.92 in 6.2 mi WNW 5.8 mph - N/A   Partly Cloudy
10:20 AM 57.2 °F 50.0 °F 77% 29.92 in 6.2 mi WNW 5.8 mph - N/A   Partly Cloudy
10:50 AM 59.0 °F 51.8 °F 77% 29.95 in 6.2 mi WNW 6.9 mph - N/A   Partly Cloudy
11:00 AM 58 °F 51 °F 72% 29.95 in 6 mi WNW 6.9 mph - -   Scattered Clouds
11:20 AM 59.0 °F 51.8 °F 77% 29.95 in 6.2 mi WNW 6.9 mph - N/A   Partly Cloudy
11:50 AM 59.0 °F 50.0 °F 72% 29.95 in 6.2 mi WNW 9.2 mph - N/A   Partly Cloudy
12:20 PM 59.0 °F 50.0 °F 72% 29.95 in 6.2 mi WNW 9.2 mph - N/A   Partly Cloudy
12:50 PM 59.0 °F 46.4 °F 63% 29.92 in 6.2 mi WNW 10.4 mph - N/A   Partly Cloudy
1:20 PM 60.8 °F 46.4 °F 59% 29.95 in 6.2 mi WNW 9.2 mph - N/A   Partly Cloudy
1:50 PM 60.8 °F 46.4 °F 59% 29.95 in 6.2 mi WNW 11.5 mph - N/A   Partly Cloudy
2:00 PM 60 °F 46 °F 50% 29.95 in 6 mi WNW 11.5 mph - -   Scattered Clouds
2:20 PM 60.8 °F 46.4 °F 59% 29.95 in 6.2 mi WNW 10.4 mph - N/A   Partly Cloudy
2:50 PM 60.8 °F 46.4 °F 59% 29.95 in 6.2 mi WNW 11.5 mph - N/A   Partly Cloudy
3:20 PM 60.8 °F 44.6 °F 55% 29.95 in 6.2 mi WNW 11.5 mph - N/A   Partly Cloudy
3:50 PM 60.8 °F 48.2 °F 63% 29.98 in 6.2 mi WNW 11.5 mph - N/A   Partly Cloudy
4:20 PM 59.0 °F 46.4 °F 63% 29.98 in 6.2 mi WNW 11.5 mph - N/A   Partly Cloudy
4:50 PM 59.0 °F 44.6 °F 59% 29.98 in 6.2 mi WNW 11.5 mph - N/A   Partly Cloudy
5:00 PM 59 °F 45 °F 50% 29.99 in 6 mi WNW 11.5 mph - -   Scattered Clouds
5:20 PM 59.0 °F 46.4 °F 63% 29.98 in 6.2 mi WNW 12.7 mph - N/A   Partly Cloudy
5:50 PM 57.2 °F 46.4 °F 67% 30.01 in 6.2 mi West 12.7 mph - N/A   Partly Cloudy
6:20 PM 57.2 °F 46.4 °F 67% 30.04 in 6.2 mi WNW 12.7 mph - N/A   Partly Cloudy
6:50 PM 57.2 °F 46.4 °F 67% 30.04 in 6.2 mi WNW 13.8 mph - N/A   Partly Cloudy
7:20 PM 55.4 °F 46.4 °F 72% 30.04 in 6.2 mi West 12.7 mph - N/A   Partly Cloudy
7:50 PM 55.4 °F 48.2 °F 77% 30.06 in 6.2 mi WNW 15.0 mph - N/A   Partly Cloudy
8:00 PM 56 °F 48 °F 67% 30.07 in 6 mi WNW 15.0 mph - -   Scattered Clouds
8:20 PM 55.4 °F 46.4 °F 72% 30.06 in 6.2 mi WNW 13.8 mph - N/A   Partly Cloudy
8:50 PM 55.4 °F 46.4 °F 72% 30.06 in - WNW 13.8 mph - N/A   Clear
9:20 PM 55.4 °F 46.4 °F 72% 30.06 in - WNW 16.1 mph - N/A   Clear
9:50 PM 55.4 °F 46.4 °F 72% 30.09 in - WNW 12.7 mph - N/A   Clear
10:20 PM 55.4 °F 46.4 °F 72% 30.09 in - WNW 11.5 mph - N/A   Clear
10:50 PM 55.4 °F 46.4 °F 72% 30.12 in 6.2 mi WNW 11.5 mph - N/A   Partly Cloudy
11:00 PM 56 °F 46 °F 59% 30.13 in 6 mi WNW 11.5 mph - -   Scattered Clouds
11:20 PM 55.4 °F 46.4 °F 72% 30.12 in 6.2 mi WNW 11.5 mph - N/A   Partly Cloudy
11:50 PM 55.4 °F 46.4 °F 72% 30.12 in 6.2 mi WNW 12.7 mph - N/A   Partly Cloudy